Weather History for Hurlburt Field, FL

Change the Weather History Date:

Monday, November 26, 2012

  Actual Average Record
Temperature  
Mean Temperature 50 °F -  
Max Temperature 66 °F 65 °F 78 °F (2010)
Min Temperature 35 °F 46 °F 31 °F (2008)
Degree Days  
Heating Degree Days 14    
Moisture  
Dew Point 54 °F    
Average Humidity 80    
Maximum Humidity 97    
Minimum Humidity 62    
Precipitation  
Precipitation 0.00 in - - ()
Sea Level Pressure  
Sea Level Pressure 30.17 in    
Wind  
Wind Speed 7 mph (ESE)    
Max Wind Speed 10 mph    
Max Gust Speed -    
Visibility 10 miles    
Events      
Averages and records for this station are not official NWS values.
T = Trace of Precipitation, MM = Missing Value Source: NWS Daily Summary

Daily Weather History Graph

Daily Weather History Graph

Search for Another Location

Airport:

Trip Planner

Search our weather history database for the weather conditions in past years. The results will help you decide how hot, cold, wet, or windy it might be!

Date:

Astronomy

Nov. 26, 2012 Rise Set
Actual Time 6:22 AM CST 4:46 PM CST
Civil Twilight 5:56 AM CST 5:12 PM CST
Nautical Twilight 5:26 AM CST 5:41 PM CST
Astronomical Twilight 4:57 AM CST 6:10 PM CST
Moon 3:34 PM CST (11/26) 4:36 AM CST (11/26)
Length of Visible Light 11h 15m
Length of Day
10h 23m
Waxing Gibbous, 97% of the Moon is Illuminated
Nov 26
Waxing Gibbous
Nov 28
Full
Dec 6
Last Quarter
Dec 13
New
Dec 19
First Quarter

Hourly Weather History & Observations

Time (CST) Temp. Windchill Dew Point Humidity Pressure Visibility Wind Dir Wind Speed Gust Speed Precip Events Conditions
12:55 AM 35.8 °F 30.9 °F 34.9 °F 97% 30.14 in 10.0 mi North 5.8 mph - N/A   Clear
1:55 AM 36.1 °F 32.3 °F 35.4 °F 97% 30.14 in 10.0 mi North 4.6 mph - N/A   Clear
2:55 AM 36.1 °F 32.3 °F 35.1 °F 96% 30.14 in 10.0 mi North 4.6 mph - N/A   Clear
3:55 AM 37.9 °F 34.4 °F 36.9 °F 96% 30.14 in 10.0 mi NNE 4.6 mph - N/A   Clear
4:55 AM 39.6 °F 35.4 °F 37.4 °F 92% 30.15 in 10.0 mi NNE 5.8 mph - N/A   Clear
5:55 AM 39.7 °F 36.5 °F 37.4 °F 91% 30.17 in 10.0 mi NE 4.6 mph - N/A   Clear
6:55 AM 45.1 °F 42.8 °F 41.0 °F 85% 30.18 in 10.0 mi ENE 4.6 mph - N/A   Mostly Cloudy
7:55 AM 50.5 °F - 43.9 °F 78% 30.21 in 10.0 mi ENE 4.6 mph - N/A   Scattered Clouds
8:55 AM 57.7 °F - 46.6 °F 66% 30.22 in 10.0 mi East 8.1 mph - N/A   Clear
8:57 AM 57.2 °F - 46.4 °F 67% 30.23 in 10.0 mi ENE 9.2 mph - N/A   Light Drizzle
9:06 AM 59.0 °F - 48.2 °F 67% 30.22 in 10.0 mi East 6.9 mph - N/A   Partly Cloudy
9:55 AM 59.9 °F - 48.0 °F 65% 30.21 in 10.0 mi East 8.1 mph - 0.00 in   Mostly Cloudy
10:55 AM 61.9 °F - 48.9 °F 62% 30.21 in 10.0 mi East 8.1 mph - N/A   Scattered Clouds
11:55 AM 66.2 °F - 52.9 °F 62% 30.19 in 10.0 mi SE 10.4 mph - N/A   Mostly Cloudy
12:38 PM 66.2 °F - 55.4 °F 68% 30.17 in 10.0 mi SE 8.1 mph - N/A   Light Drizzle
12:48 PM 66.2 °F - 57.2 °F 73% 30.17 in 10.0 mi SE 9.2 mph - N/A   Partly Cloudy
12:49 PM 66.2 °F - 57.2 °F 73% 30.17 in 10.0 mi SE 6.9 mph - N/A   Light Drizzle
12:52 PM 66.2 °F - 57.2 °F 73% 30.17 in 10.0 mi ESE 6.9 mph - N/A   Partly Cloudy
12:55 PM 66.7 °F - 57.0 °F 71% 30.17 in 10.0 mi ESE 9.2 mph - 0.00 in   Partly Cloudy
1:55 PM 66.6 °F - 56.7 °F 70% 30.15 in 10.0 mi SE 10.4 mph - N/A   Partly Cloudy
2:55 PM 66.2 °F - 57.6 °F 74% 30.15 in 10.0 mi SE 6.9 mph - N/A   Mostly Cloudy
3:38 PM 66.2 °F - 59.0 °F 78% 30.15 in 10.0 mi ESE 5.8 mph - N/A   Light Drizzle
3:46 PM 66.2 °F - 59.0 °F 78% 30.14 in 10.0 mi East 6.9 mph - N/A   Mostly Cloudy
3:55 PM 65.7 °F - 58.6 °F 78% 30.15 in 10.0 mi East 4.6 mph - 0.00 in   Mostly Cloudy
4:55 PM 65.1 °F - 60.3 °F 84% 30.15 in 10.0 mi East 3.5 mph - N/A   Overcast
5:55 PM 65.5 °F - 60.8 °F 85% 30.15 in 10.0 mi ESE 6.9 mph - N/A   Overcast
6:55 PM 65.8 °F - 61.5 °F 86% 30.16 in 10.0 mi ESE 5.8 mph - N/A   Mostly Cloudy
7:55 PM 66.2 °F - 62.1 °F 86% 30.17 in 10.0 mi SE 5.8 mph - N/A   Mostly Cloudy
8:20 PM 66.2 °F - 62.6 °F 88% 30.17 in 10.0 mi SE 5.8 mph - N/A   Mostly Cloudy
8:55 PM 66.9 °F - 62.1 °F 84% 30.17 in 10.0 mi SE 6.9 mph - N/A   Overcast
9:50 PM 66.2 °F - 62.6 °F 88% 30.17 in 10.0 mi South 6.9 mph - N/A   Overcast
9:55 PM 66.7 °F - 61.7 °F 84% 30.17 in 10.0 mi SSE 8.1 mph - N/A   Overcast
9:58 PM 66.2 °F - 60.8 °F 83% 30.16 in 10.0 mi SSE 8.1 mph - N/A   Mostly Cloudy
10:05 PM 66.2 °F - 60.8 °F 83% 30.16 in 10.0 mi SSE 9.2 mph - N/A   Mostly Cloudy
10:09 PM 66.2 °F - 60.8 °F 83% 30.15 in 10.0 mi SSE 9.2 mph - N/A   Scattered Clouds
10:34 PM 66.2 °F - 60.8 °F 83% 30.15 in 10.0 mi SSE 9.2 mph - N/A   Mostly Cloudy
10:55 PM 66.7 °F - 61.5 °F 83% 30.15 in 10.0 mi SSE 10.4 mph - N/A   Mostly Cloudy
11:02 PM 66.2 °F - 60.8 °F 83% 30.15 in 10.0 mi South 9.2 mph - N/A   Mostly Cloudy
11:33 PM 66.2 °F - 60.8 °F 83% 30.15 in 10.0 mi South 10.4 mph - N/A   Light Drizzle
11:55 PM 66.4 °F - 61.2 °F 83% 30.14 in 10.0 mi South 9.2 mph - 0.00 in   Mostly Cloudy